JCSAT-3A

Last updated on Fri Jul 11 2025 00:02:42 GMT+0000 (Coordinated Universal Time)

1 29272U 06033A 25191.58706562 -.00000333 00000+0 00000+0 0 9999 2 29272 0.0298 293.7336 0002206 178.0450 156.3127 1.00270600 44314
UTC large
Height (km)
Speed (km/s)
/
Latitude / Longitude
Inclination (degrees)
Orbital Period (minutes)
Azimuth
Elevation
Range (km)
Doppler Factor

Next 0 passes for location: London (51.5072 / 0.1276)

Sorry there are no passes over London.